This demonstration page uses our WeatherBlox Daily Observations layout. Learn more.

Left ArrowRight Arrow

Hourly Observations for August 12, 2018

Temp ( °F °C ) Dew Point ( °F °C ) Humidity (%) Winds ( mph kmh ) Pressure ( in mb ) Visibility ( mi km ) Precip ( " mm )
12:52 am 00:52 Mostly Clear 74 23.3 68 20 82 82 SSW 5 7 30.01 1016 10 16 0.00 0.00
1:52 am 01:52 Clear 73 22.8 67 19.4 81 81 ENE 5 7 30.00 1016 10 16 0.00 0.00
2:52 am 02:52 Clear 72 22.2 67 19.4 84 84 SE 5 7 30.01 1016 10 16 0.00 0.00
3:52 am 03:52 Clear 72 22.2 68 20 87 87 SSE 6 9 30.01 1016 10 16 0.00 0.00
4:52 am 04:52 Clear 72 22.2 67 19.4 84 84 S 7 11 30.02 1017 10 16 0.00 0.00
5:52 am 05:52 Clear 71 21.7 67 19.4 87 87 S 3 6 30.03 1017 10 16 0.00 0.00
6:52 am 06:52 Sunny 73 22.8 68 20 84 84 SSE 10 17 30.05 1018 9 14 0.00 0.00
7:52 am 07:52 Sunny 75 23.9 67 19.4 76 76 SSE 10 17 30.07 1018 9 14 0.00 0.00
8:52 am 08:52 Sunny 78 25.6 66 18.9 67 67 SSE 14 22 30.08 1019 10 16 0.00 0.00
9:52 am 09:52 Sunny 81 27.2 68 20 65 65 S 13 20 30.07 1018 10 16 0.00 0.00
10:52 am 10:52 Sunny 83 28.3 69 20.6 63 63 S 13 20 30.07 1018 10 16 0.00 0.00
11:52 am 11:52 Sunny 86 30 70 21.1 59 59 SSE 8 13 30.07 1018 10 16 0.00 0.00
12:52 pm 12:52 Sunny 88 31.1 69 20.6 54 54 VRB 7 11 30.06 1018 10 16 0.00 0.00
1:52 pm 13:52 Mostly Sunny 90 32.2 68 20 48 48 SSE 9 15 30.03 1017 10 16 0.00 0.00
2:52 pm 14:52 Mostly Sunny 92 33.3 68 20 46 46 ESE 13 20 30.01 1016 10 16 0.00 0.00
3:52 pm 15:52 Sunny 89 31.7 67 19.4 48 48 SE 14 22 29.99 1016 10 16 0.00 0.00
4:52 pm 16:52 Mostly Sunny 88 31.1 68 20 52 52 SSE 12 19 30.00 1016 10 16 0.00 0.00
5:52 pm 17:52 Mostly Sunny 86 30 69 20.6 57 57 S 14 22 30.01 1016 10 16 0.00 0.00
6:52 pm 18:52 Mostly Sunny 85 29.4 68 20 57 57 SE 13 20 30.01 1016 10 16 0.00 0.00
7:52 pm 19:52 Sunny 84 28.9 68 20 59 59 SSE 7 11 30.01 1016 10 16 0.00 0.00
8:52 pm 20:52 Mostly Clear 80 26.7 68 20 67 67 S 13 20 30.04 1017 10 16 0.00 0.00
9:52 pm 21:52 Clear 78 25.6 66 18.9 67 67 S 8 13 30.04 1017 10 16 0.00 0.00
10:52 pm 22:52 Clear 76 24.4 67 19.4 74 74 SSE 8 13 30.05 1018 10 16 0.00 0.00
11:52 pm 23:52 Clear 75 23.9 66 18.9 74 74 SSE 7 11 30.04 1017 10 16 0.00 0.00

Powered by AerisWeather